�N����,����,�g�[���i���ԁj���x,�g�[�����x,��g�[���i���ցj���x,����
 2003/10/01, 0:00,24.5,32,23,23.5
 2003/10/01, 0:15,24.4,32,23.4,23
 2003/10/01, 0:30,24.4,33,23.2,23
 2003/10/01, 0:45,24.3,33,23,23
 2003/10/01, 1:00,24.1,33,22.8,23.1
 2003/10/01, 1:15,24.1,33,22.7,23.1
 2003/10/01, 1:30,23.8,33,23.1,23.1
 2003/10/01, 1:45,23.6,34,23.4,23.1
 2003/10/01, 2:00,24,33,23.3,23.1
 2003/10/01, 2:15,23.8,33,23.3,23.2
 2003/10/01, 2:30,24,33,23.3,23.2
 2003/10/01, 2:45,24,34,23.1,23.2
 2003/10/01, 3:00,23.9,34,22.9,23.2
 2003/10/01, 3:15,23.9,33,22.9,23.3
 2003/10/01, 3:30,23,35,23.3,23.3
 2003/10/01, 3:45,22.7,37,23.4,23.3
 2003/10/01, 4:00,23.7,35,23.1,23.3
 2003/10/01, 4:15,22.1,37,23.4,23.3
 2003/10/01, 4:30,20.7,40,23.3,23.4
 2003/10/01, 4:45,20.2,43,23.2,23.4
 2003/10/01, 5:00,19.8,44,23.1,23.4
 2003/10/01, 5:15,20,44,23.1,23.4
 2003/10/01, 5:30,19.9,44,23.1,23.5
 2003/10/01, 5:45,20.4,42,23.1,23.5
 2003/10/01, 6:00,20.4,42,23.1,23.5
 2003/10/01, 6:15,21.6,39,23.2,23.5
 2003/10/01, 6:30,23,37,23.4,23.5
 2003/10/01, 6:45,24.1,35,23.6,23.4
 2003/10/01, 7:00,23.8,34,23.2,23.4
 2003/10/01, 7:15,24.6,35,23.3,23.2
 2003/10/01, 7:30,25.2,34,23.7,23.2
 2003/10/01, 7:45,25.2,34,23.9,23.1
 2003/10/01, 8:00,25.2,32,24,23.1
 2003/10/01, 8:15,25.1,32,24,23.1
 2003/10/01, 8:30,24.9,31,24.1,23.2
 2003/10/01, 8:45,25.2,31,24.1,23.2
 2003/10/01, 9:00,25,31,24.1,23.2
 2003/10/01, 9:15,24.9,30,24.1,23.2
 2003/10/01, 9:30,24.8,30,24.1,23.2
 2003/10/01, 9:45,25,31,24,23.3
 2003/10/01,10:00,24.7,30,24.1,23.3
 2003/10/01,10:15,25.1,31,24,23.3
 2003/10/01,10:30,25,31,23.8,23.3
 2003/10/01,10:45,25,32,23.7,23.3
 2003/10/01,11:00,25,31,23.7,23.4
 2003/10/01,11:15,25,32,23.7,23.4
 2003/10/01,11:30,25,30,23.8,23.4
 2003/10/01,11:45,25,30,23.9,23.4
 2003/10/01,12:00,25,31,23.6,23.5
 2003/10/01,12:15,25,30,23.5,23.5
 2003/10/01,12:30,25,30,23.6,23.5
 2003/10/01,12:45,25,30,23.6,23.5
 2003/10/01,13:00,24.9,28,23.5,23.5
 2003/10/01,13:15,25,28,23.7,23.6
 2003/10/01,13:30,25,28,23.7,23.6
 2003/10/01,13:45,25,28,23.7,23.6
 2003/10/01,14:00,25,28,23.8,23.6
 2003/10/01,14:15,25,30,23.9,23.6
 2003/10/01,14:30,25,30,24,23.7
 2003/10/01,14:45,25.1,31,24,23.7
 2003/10/01,15:00,25.1,32,24,23.7
 2003/10/01,15:15,25.1,32,24.1,23.7
 2003/10/01,15:30,25.2,32,24,23.7
 2003/10/01,15:45,25.1,33,24,23.8
 2003/10/01,16:00,25.1,33,24,23.8
 2003/10/01,16:15,25.1,33,24,23.8
 2003/10/01,16:30,25.1,34,24,23.8
 2003/10/01,16:45,25.1,34,24,23.8
 2003/10/01,17:00,25.1,35,24.1,23.9
 2003/10/01,17:15,25.1,35,24,23.9
 2003/10/01,17:30,25.1,35,23.9,23.9
 2003/10/01,17:45,25,35,23.9,23.9
 2003/10/01,18:00,24.9,35,23.8,23.9
 2003/10/01,18:15,24.9,34,23.9,23.9
 2003/10/01,18:30,25,34,23.9,24
 2003/10/01,18:45,24.9,35,24,24
 2003/10/01,19:00,25,35,24,24
 2003/10/01,19:15,24.9,35,24,24
 2003/10/01,19:30,25,36,24,24
 2003/10/01,19:45,25,36,24.1,23.5
 2003/10/01,20:00,25,37,24.1,23.5
 2003/10/01,20:15,25.2,36,24.1,23.6
 2003/10/01,20:30,24.7,39,24.5,23.1
 2003/10/01,20:45,24.9,39,24.6,23.2
 2003/10/01,21:00,24.8,39,24.3,23.2
 2003/10/01,21:15,24.7,40,24.2,23.2
 2003/10/01,21:30,25.2,40,24.2,23.2
 2003/10/01,21:45,25.4,40,24.3,23.2
 2003/10/01,22:00,25.3,40,24.2,23.3
 2003/10/01,22:15,25.3,40,24.2,23.3
 2003/10/01,22:30,25.3,40,24.2,23.3
 2003/10/01,22:45,25.3,39,24.2,23.3
 2003/10/01,23:00,25.3,40,24.2,23.5
 2003/10/01,23:15,25.3,40,24.2,23.1
 2003/10/01,23:30,25.2,40,24.2,23.1
 2003/10/01,23:45,25.2,40,24.2,23.1
 2003/10/02, 0:00,25.2,40,24.2,23.1
 2003/10/02, 0:15,25.2,40,24.3,23.2
 2003/10/02, 0:30,25.2,40,24.3,23.2
 2003/10/02, 0:45,25.2,40,24.3,23.2
 2003/10/02, 1:00,25.2,40,24.3,23.2
 2003/10/02, 1:15,25.1,40,24.3,23.3
 2003/10/02, 1:30,25.1,40,24.2,23.3
 2003/10/02, 1:45,25.1,40,24.2,23.3
 2003/10/02, 2:00,25.1,40,24.2,23.3
 2003/10/02, 2:15,25.1,41,24.2,23.4
 2003/10/02, 2:30,25.1,41,24.2,23.4
 2003/10/02, 2:45,25.1,41,24.2,23.4
 2003/10/02, 3:00,25.1,41,24.3,23.4
 2003/10/02, 3:15,25,42,24.3,23.5
 2003/10/02, 3:30,25,41,24.3,23.5
 2003/10/02, 3:45,25,42,24.2,23.5
 2003/10/02, 4:00,25,42,24.3,23.5
 2003/10/02, 4:15,25,42,24.3,23.6
 2003/10/02, 4:30,25,42,24.3,23.6
 2003/10/02, 4:45,25,42,24.3,23.6
 2003/10/02, 5:00,25,42,24.3,23.6
 2003/10/02, 5:15,25,42,24.3,23.7
 2003/10/02, 5:30,25,42,24.3,23.7
 2003/10/02, 5:45,25,42,24.3,23.7
 2003/10/02, 6:00,25,43,24.2,23.7
 2003/10/02, 6:15,25,42,24.3,23.7
 2003/10/02, 6:30,25,43,24.3,23.8
 2003/10/02, 6:45,25.1,43,24.3,23.5
 2003/10/02, 7:00,25.2,44,24.4,23.5
 2003/10/02, 7:15,24.9,46,24.4,23.2
 2003/10/02, 7:30,25.3,45,24.5,23.2
 2003/10/02, 7:45,25.6,45,24.6,23.2
 2003/10/02, 8:00,25.7,44,24.6,23.2
 2003/10/02, 8:15,26,44,24.7,23.3
 2003/10/02, 8:30,26,43,24.7,23.3
 2003/10/02, 8:45,26,43,24.6,23.3
 2003/10/02, 9:00,25.9,44,24.6,23.3
 2003/10/02, 9:15,25.8,44,24.6,23.4
 2003/10/02, 9:30,25.8,44,24.5,23.4
 2003/10/02, 9:45,25.8,43,24.6,23.4
 2003/10/02,10:00,25.8,43,24.5,23.4
 2003/10/02,10:15,25.8,43,24.4,23.5
 2003/10/02,10:30,25.7,42,24.3,23.5
 2003/10/02,10:45,25.8,42,24.4,23.5
 2003/10/02,11:00,25.8,42,24.4,23.5
 2003/10/02,11:15,25.8,42,24.5,23.6
 2003/10/02,11:30,25.8,42,24.5,23.6
 2003/10/02,11:45,25.8,42,24.5,23.6
 2003/10/02,12:00,25.8,42,24.6,23.6
 2003/10/02,12:15,25.8,42,24.6,23.7
 2003/10/02,12:30,25.8,42,24.6,23.7
 2003/10/02,12:45,25.9,42,24.6,23.7
 2003/10/02,13:00,25.9,42,24.6,23.7
 2003/10/02,13:15,25.9,42,24.7,23.8
 2003/10/02,13:30,25.9,42,24.7,23.8
 2003/10/02,13:45,25.9,42,24.7,23.8
 2003/10/02,14:00,25.9,42,24.8,23.8
 2003/10/02,14:15,26,42,24.8,23.9
 2003/10/02,14:30,26,42,24.8,23.9
 2003/10/02,14:45,26,42,24.8,23.9
 2003/10/02,15:00,26,42,24.8,23.9
 2003/10/02,15:15,25.9,43,24.8,23.9
 2003/10/02,15:30,25.9,43,24.8,24
 2003/10/02,15:45,25.9,42,24.8,24
 2003/10/02,16:00,25.9,42,24.8,24
 2003/10/02,16:15,25.9,42,24.8,24
 2003/10/02,16:30,25.9,42,24.8,24.1
 2003/10/02,16:45,25.9,42,24.8,24.1
 2003/10/02,17:00,25.9,41,24.8,24.1
 2003/10/02,17:15,25.8,41,24.7,24.1
 2003/10/02,17:30,25.8,41,24.7,24.2
 2003/10/02,17:45,25.8,40,24.5,24.2
 2003/10/02,18:00,25.7,40,24.5,24.2
 2003/10/02,18:15,25.7,40,24.5,24.2
 2003/10/02,18:30,25.7,40,24.5,24.2
 2003/10/02,18:45,25.6,39,24.5,24.2
 2003/10/02,19:00,25.6,39,24.5,24.3
 2003/10/02,19:15,25.6,39,24.4,24.3
 2003/10/02,19:30,25.6,39,24.3,24.3
 2003/10/02,19:45,25.6,39,24.2,24.3
 2003/10/02,20:00,25.5,38,24.2,24.4
 2003/10/02,20:15,25.5,39,24.2,24.4
 2003/10/02,20:30,25.5,38,24.2,24.4
 2003/10/02,20:45,25.4,39,24.2,24.4
 2003/10/02,21:00,25.5,38,24.1,24.4
 2003/10/02,21:15,25.4,39,24,24.4
 2003/10/02,21:30,25.4,38,24.1,24.5
 2003/10/02,21:45,25.4,38,24.1,24.5
 2003/10/02,22:00,25.3,38,24,24.5
 2003/10/02,22:15,25.4,39,24,24.5
 2003/10/02,22:30,25.6,38,24.1,24.5
 2003/10/02,22:45,25.6,38,24.2,24.5
 2003/10/02,23:00,25.6,39,24.4,24.6
 2003/10/02,23:15,25.6,39,24.4,24.6
 2003/10/02,23:30,25.6,38,24.4,24.6
 2003/10/02,23:45,25.5,38,24.3,23.1
 2003/10/03, 0:00,25.4,38,24.3,23.1
 2003/10/03, 0:15,25.4,38,24.3,23.2
 2003/10/03, 0:30,25.3,38,24.3,23.2
 2003/10/03, 0:45,25.3,38,24.4,23.2
 2003/10/03, 1:00,25.4,38,24.4,23.2
 2003/10/03, 1:15,25.3,39,24.3,23.2
 2003/10/03, 1:30,25.3,39,24.3,23.3
 2003/10/03, 1:45,25.3,39,24.3,23.3
 2003/10/03, 2:00,25.3,39,24.3,23.3
 2003/10/03, 2:15,25.3,39,24.3,23.4
 2003/10/03, 2:30,25.2,39,24.3,23.4
 2003/10/03, 2:45,25.2,39,24.3,23.4
 2003/10/03, 3:00,25.2,39,24.2,23.4
 2003/10/03, 3:15,25.2,39,24.2,23.5
 2003/10/03, 3:30,25.2,39,24.2,23.5
 2003/10/03, 3:45,25.2,39,24.2,23.5
 2003/10/03, 4:00,25.2,39,24.2,23.5
 2003/10/03, 4:15,25.2,39,24.1,23.6
 2003/10/03, 4:30,25.2,39,24.1,23.6
 2003/10/03, 4:45,25.2,39,24.2,23.6
 2003/10/03, 5:00,25.2,39,24.3,23.7
 2003/10/03, 5:15,25.2,40,24.3,23.7
 2003/10/03, 5:30,25.1,40,24.3,23.7
 2003/10/03, 5:45,25.1,39,24.2,23.7
 2003/10/03, 6:00,25.1,39,24.3,23.8
 2003/10/03, 6:15,25.2,39,24.2,23.8
 2003/10/03, 6:30,25.2,40,24.1,23.4
 2003/10/03, 6:45,24.5,39,24.3,23.4
 2003/10/03, 7:00,24.4,41,24,23.4
 2003/10/03, 7:15,24.2,40,24.1,23.2
 2003/10/03, 7:30,24.7,40,24.3,23.1
 2003/10/03, 7:45,24.9,42,24.4,23.1
 2003/10/03, 8:00,24.9,40,24.4,23.1
 2003/10/03, 8:15,25,39,24.4,23.2
 2003/10/03, 8:30,25.4,39,24.4,23.2
 2003/10/03, 8:45,25.6,39,24.4,23.2
 2003/10/03, 9:00,25.7,38,24.1,23.2
 2003/10/03, 9:15,25.8,38,24,23.3
 2003/10/03, 9:30,25.8,37,24,23.3
 2003/10/03, 9:45,25.8,38,24.1,23.3
 2003/10/03,10:00,25.7,38,24,23.3
 2003/10/03,10:15,25.6,37,24.4,23.4
 2003/10/03,10:30,25.6,36,24.4,23.4
 2003/10/03,10:45,25.6,37,24.5,23.4
 2003/10/03,11:00,25.6,37,24.4,23.4
 2003/10/03,11:15,25.6,36,24.5,23.5
 2003/10/03,11:30,25.6,36,24.5,23.5
 2003/10/03,11:45,25.6,36,24.5,23.5
 2003/10/03,12:00,25.6,36,24.5,23.5
 2003/10/03,12:15,25.6,36,24.3,23.6
 2003/10/03,12:30,25.6,35,24.4,23.6
 2003/10/03,12:45,25.6,35,24.2,23.6
 2003/10/03,13:00,25.6,33,24.4,23.6
 2003/10/03,13:15,25.6,33,24.3,23.7
 2003/10/03,13:30,25.6,34,24.3,23.7
 2003/10/03,13:45,25.6,32,24.4,23.7
 2003/10/03,14:00,25.6,32,24.3,23.7
 2003/10/03,14:15,25.6,32,24.2,23.8
 2003/10/03,14:30,25.6,31,24.3,23.8
 2003/10/03,14:45,25.6,29,24.4,23.8
 2003/10/03,15:00,25.6,29,24.5,23.8
 2003/10/03,15:15,25.6,29,24.5,23.9
 2003/10/03,15:30,25.6,29,24.6,23.9
 2003/10/03,15:45,25.5,29,24.6,23.9
 2003/10/03,16:00,25.5,28,24.6,23.9
 2003/10/03,16:15,25.4,28,24.7,24
 2003/10/03,16:30,25.5,29,24.6,24
 2003/10/03,16:45,25.4,29,24.6,24
 2003/10/03,17:00,25.4,29,24.6,24
 2003/10/03,17:15,25.4,29,24.5,24
 2003/10/03,17:30,25.3,29,24.4,24.1
 2003/10/03,17:45,25.3,29,24.4,24.1
 2003/10/03,18:00,25.3,30,24.4,24.1
 2003/10/03,18:15,25.2,30,24.4,24.1
 2003/10/03,18:30,25.2,29,24.4,24.1
 2003/10/03,18:45,25.1,30,24.4,24.1
 2003/10/03,19:00,24.8,30,24.4,24.2
 2003/10/03,19:15,24.8,30,24.4,24.2
 2003/10/03,19:30,24.6,30,24.3,24.2
 2003/10/03,19:45,24.7,31,24.3,24.2
 2003/10/03,20:00,24.7,32,24.2,24.2
 2003/10/03,20:15,24.6,31,24.3,24.3
 2003/10/03,20:30,24.3,32,24.3,24.3
 2003/10/03,20:45,24.2,32,24.3,24.3
 2003/10/03,21:00,24.3,32,24.3,24.3
 2003/10/03,21:15,24.2,32,24.3,24.3
 2003/10/03,21:30,24.3,32,24.3,24.3
 2003/10/03,21:45,24.3,32,24.2,24.4
 2003/10/03,22:00,24.2,33,24.3,24.4
 2003/10/03,22:15,24.2,33,24.2,24.4
 2003/10/03,22:30,24.3,33,24.2,24.4
 2003/10/03,22:45,24.3,33,24.2,24.4
 2003/10/03,23:00,24.2,33,24.2,24.4
 2003/10/03,23:15,24.1,33,24.1,24.4
 2003/10/03,23:30,23.8,34,24.1,24.4
 2003/10/03,23:45,23.6,35,24,23.5
 2003/10/04, 0:00,23.6,34,23.9,23.4
 2003/10/04, 0:15,23.4,36,24,23.1
 2003/10/04, 0:30,23.3,36,23.8,23.1
 2003/10/04, 0:45,23.2,37,23.8,23.1
 2003/10/04, 1:00,23.2,37,23.9,23.2
 2003/10/04, 1:15,23.7,38,23.9,23.2
 2003/10/04, 1:30,24,37,23.9,23.2
 2003/10/04, 1:45,24.2,37,23.8,23.2
 2003/10/04, 2:00,24.3,37,23.8,23.2
 2003/10/04, 2:15,24.4,37,24.1,23.3
 2003/10/04, 2:30,24.6,37,24.1,23.3
 2003/10/04, 2:45,24.7,37,24.1,23.3
 2003/10/04, 3:00,24.8,37,24.2,23.3
 2003/10/04, 3:15,24.8,37,24.2,23.3
 2003/10/04, 3:30,24.9,37,24.3,23.4
 2003/10/04, 3:45,25,37,24.2,23.2
 2003/10/04, 4:00,25,38,24.3,23.2
 2003/10/04, 4:15,24.9,38,24.3,23.2
 2003/10/04, 4:30,25,38,24.4,23.2
 2003/10/04, 4:45,25,38,24.3,23.3
 2003/10/04, 5:00,25,38,24.4,23.3
 2003/10/04, 5:15,25,38,24.3,23.3
 2003/10/04, 5:30,25,38,24.3,23.3
 2003/10/04, 5:45,25,38,24.3,23.3
 2003/10/04, 6:00,25,39,24.4,23.4
 2003/10/04, 6:15,25.1,39,24.3,23.4
 2003/10/04, 6:30,25.2,39,24.4,23.4
 2003/10/04, 6:45,25.3,39,24.5,23.4
 2003/10/04, 7:00,25.3,39,24.4,23.1
 2003/10/04, 7:15,25.8,38,24.5,23.2
 2003/10/04, 7:30,26.2,37,24.7,23.2
 2003/10/04, 7:45,26.6,36,25.1,23.2
 2003/10/04, 8:00,26.7,36,25.2,23.2
 2003/10/04, 8:15,26.9,36,25,23.2
 2003/10/04, 8:30,26.9,36,25.1,23.2
 2003/10/04, 8:45,27,37,25.2,23.2
 2003/10/04, 9:00,26.9,30,25,23
 2003/10/04, 9:15,26.6,30,24.9,22.8
 2003/10/04, 9:30,26.2,28,24.8,22.8
 2003/10/04, 9:45,25.6,28,24.6,22.9
 2003/10/04,10:00,25.2,28,24.5,22.9
 2003/10/04,10:15,25.5,29,24.5,22.9
 2003/10/04,10:30,25.3,29,24.4,22.9
 2003/10/04,10:45,25.4,30,24.4,23
 2003/10/04,11:00,25.5,30,24.2,23
 2003/10/04,11:15,25.4,30,23.7,23
 2003/10/04,11:30,25.4,30,23.7,23.1
 2003/10/04,11:45,25.5,30,23.8,23.2
 2003/10/04,12:00,25.5,30,23.7,23.3
 2003/10/04,12:15,25.4,29,23.6,23.1
 2003/10/04,12:30,25.5,30,24,23.2
 2003/10/04,12:45,25.6,31,24.3,23.2
 2003/10/04,13:00,25.7,32,24.4,23.2
 2003/10/04,13:15,25.6,31,23.9,23.2
 2003/10/04,13:30,25.6,31,23.9,23.2
 2003/10/04,13:45,25.6,30,23.6,23.2
 2003/10/04,14:00,25.5,30,23.6,23.2
 2003/10/04,14:15,25.5,30,23.7,23.3
 2003/10/04,14:30,25.4,30,23.4,23.3
 2003/10/04,14:45,25.6,31,23.5,23.3
 2003/10/04,15:00,25.7,32,23.5,23.3
 2003/10/04,15:15,25.8,33,23.5,23.3
 2003/10/04,15:30,25.8,33,23.5,23.4
 2003/10/04,15:45,25.8,33,23.7,23.4
 2003/10/04,16:00,25.8,33,23.7,23.4
 2003/10/04,16:15,25.8,33,23.8,23.4
 2003/10/04,16:30,25.8,33,23.9,23.5
 2003/10/04,16:45,25.8,34,23.6,23.5
 2003/10/04,17:00,25.8,34,23.6,23.5
 2003/10/04,17:15,25.8,34,23.7,23.5
 2003/10/04,17:30,25.8,34,23.8,23.6
 2003/10/04,17:45,25.6,33,23.7,23.2
 2003/10/04,18:00,25.5,32,23.5,23
 2003/10/04,18:15,25,32,23.8,23
 2003/10/04,18:30,24.7,33,23.7,23
 2003/10/04,18:45,24.9,33,23.5,23
 2003/10/04,19:00,24.9,33,23.7,23
 2003/10/04,19:15,24.9,33,23.5,23
 2003/10/04,19:30,24.7,31,23.7,23
 2003/10/04,19:45,24.4,32,23.7,23.1
 2003/10/04,20:00,24.4,32,23.8,23.1
 2003/10/04,20:15,23.6,33,23.6,23.1
 2003/10/04,20:30,23.8,33,23.7,23.1
 2003/10/04,20:45,24,33,23.8,22.8
 2003/10/04,21:00,24.1,34,23.9,22.8
 2003/10/04,21:15,23.9,33,23.8,22.8
 2003/10/04,21:30,23.6,33,23.8,22.8
 2003/10/04,21:45,23.8,35,23.9,22.9
 2003/10/04,22:00,23.6,34,23.8,22.9
 2003/10/04,22:15,23.5,35,23.8,22.9
 2003/10/04,22:30,23.7,35,23.8,22.9
 2003/10/04,22:45,24,36,23.9,23
 2003/10/04,23:00,24.2,37,23.9,23
 2003/10/04,23:15,24.4,37,24,22.9
 2003/10/04,23:30,24.6,37,24,22.9
 2003/10/04,23:45,24.8,38,23.9,22.9
 2003/10/05, 0:00,24.9,38,23.9,23
 2003/10/05, 0:15,25,38,23.9,23
 2003/10/05, 0:30,25.1,38,23.9,23
 2003/10/05, 0:45,25.2,38,23.9,23
 2003/10/05, 1:00,25.2,38,24,22.8
 2003/10/05, 1:15,25.3,38,23.9,22.9
 2003/10/05, 1:30,25.3,36,23.7,22.9
 2003/10/05, 1:45,25.3,36,23.6,23.1
 2003/10/05, 2:00,25.3,34,23.6,23.1
 2003/10/05, 2:15,25.3,34,23.4,23.1
 2003/10/05, 2:30,25.2,34,23.4,23.1
 2003/10/05, 2:45,25.2,34,23.4,23.1
 2003/10/05, 3:00,25.1,35,23.4,23.2
 2003/10/05, 3:15,25.1,35,23.6,23.2
 2003/10/05, 3:30,25.1,35,23.6,23.2
 2003/10/05, 3:45,25.1,36,23.7,23.2
 2003/10/05, 4:00,25.1,36,23.8,23.2
 2003/10/05, 4:15,25.1,36,23.8,23.3
 2003/10/05, 4:30,25.1,37,23.9,23.3
 2003/10/05, 4:45,25.1,37,23.9,23.3
 2003/10/05, 5:00,25.1,37,23.9,23.3
 2003/10/05, 5:15,25.1,37,23.9,23.4
 2003/10/05, 5:30,25.1,37,23.9,23.4
 2003/10/05, 5:45,25.1,37,24,23.4
 2003/10/05, 6:00,25.1,37,24,23.4
 2003/10/05, 6:15,25.1,37,24,23.4
 2003/10/05, 6:30,25.1,38,24,23.5
 2003/10/05, 6:45,25.2,38,23.9,23.5
 2003/10/05, 7:00,25.3,38,23.9,23.5
 2003/10/05, 7:15,25.4,39,24,23.5
 2003/10/05, 7:30,25.5,39,24.1,23
 2003/10/05, 7:45,25.5,39,24.2,22.8
 2003/10/05, 8:00,25.8,39,24.2,22.8
 2003/10/05, 8:15,26.1,41,24.3,22.8
 2003/10/05, 8:30,26.2,39,24.1,22.8
 2003/10/05, 8:45,26.3,37,24.2,22.9
 2003/10/05, 9:00,26.3,35,24.1,22.9
 2003/10/05, 9:15,26.3,36,24.1,22.9
 2003/10/05, 9:30,26.3,36,24.1,23
 2003/10/05, 9:45,26.3,36,24.1,22.8
 2003/10/05,10:00,25.7,30,24.2,22.7
 2003/10/05,10:15,25.5,30,24.2,22.7
 2003/10/05,10:30,25.2,31,24.2,22.7
 2003/10/05,10:45,25.2,31,24.1,22.7
 2003/10/05,11:00,25.3,32,24.1,22.8
 2003/10/05,11:15,24.8,31,24.1,22.8
 2003/10/05,11:30,24.7,31,24.2,22.8
 2003/10/05,11:45,24.6,31,24.2,22.8
 2003/10/05,12:00,24.8,31,24.2,22.9
 2003/10/05,12:15,24.7,32,24.3,22.8
 2003/10/05,12:30,24.6,31,24.3,22.8
 2003/10/05,12:45,24.9,31,24.2,22.9
 2003/10/05,13:00,24.8,30,24.3,22.7
 2003/10/05,13:15,24.8,31,24.4,22.8
 2003/10/05,13:30,24.8,30,24.4,22.8
 2003/10/05,13:45,24.8,29,24.4,22.8
 2003/10/05,14:00,24.9,30,24.3,22.8
 2003/10/05,14:15,25,29,24.3,22.9
 2003/10/05,14:30,25,28,24.2,22.9
 2003/10/05,14:45,25,28,24.3,22.9
 2003/10/05,15:00,25,28,24.3,23.1
 2003/10/05,15:15,25,29,24.3,23.2
 2003/10/05,15:30,25,31,24.3,23.2
 2003/10/05,15:45,25.2,32,24.2,23.2
 2003/10/05,16:00,25,29,24.1,23.2
 2003/10/05,16:15,25.1,30,24,23.2
 2003/10/05,16:30,25,30,24,23.2
 2003/10/05,16:45,24.9,29,24,22.9
 2003/10/05,17:00,24.8,28,24,22.9
 2003/10/05,17:15,24.8,30,24,23
 2003/10/05,17:30,24.8,30,23.9,22.8
 2003/10/05,17:45,24.7,33,24,22.8
 2003/10/05,18:00,24.8,34,24,22.8
 2003/10/05,18:15,24.9,34,23.9,22.8
 2003/10/05,18:30,24.8,33,23.8,22.8
 2003/10/05,18:45,24.8,33,23.8,22.8
 2003/10/05,19:00,24.6,32,23.9,22.8
 2003/10/05,19:15,24.5,32,24,22.9
 2003/10/05,19:30,24.5,32,23.9,22.9
 2003/10/05,19:45,24.6,34,24,22.9
 2003/10/05,20:00,24.5,33,24,22.7
 2003/10/05,20:15,24.5,32,24,22.7
 2003/10/05,20:30,24.3,29,23.9,22.7
 2003/10/05,20:45,24.5,32,24,22.7
 2003/10/05,21:00,24.7,34,24.1,22.7
 2003/10/05,21:15,24.8,35,24.2,22.8
 2003/10/05,21:30,24.8,36,24.2,22.8
 2003/10/05,21:45,25,36,24.2,22.8
 2003/10/05,22:00,25.1,36,24.1,22.9
 2003/10/05,22:15,25.1,37,24,22.4
 2003/10/05,22:30,25.3,37,24,22.4
 2003/10/05,22:45,25.3,37,24,22.5
 2003/10/05,23:00,25.4,37,24,22.6
 2003/10/05,23:15,25.4,37,24,22.6
 2003/10/05,23:30,25.4,37,24.1,22.6
 2003/10/05,23:45,25.4,37,24.1,22.6
 2003/10/06, 0:00,25.4,37,24.2,22.7
 2003/10/06, 0:15,25.4,37,24.2,22.7
 2003/10/06, 0:30,25.5,37,24.2,22.7
 2003/10/06, 0:45,25.5,37,24.1,22.7
 2003/10/06, 1:00,25.4,37,24,22.8
 2003/10/06, 1:15,25.4,37,24,22.8
 2003/10/06, 1:30,25.4,37,24.1,22.8
 2003/10/06, 1:45,25.4,37,24.1,22.9
 2003/10/06, 2:00,25.3,37,24.1,22.9
 2003/10/06, 2:15,25.4,37,24.1,22.9
 2003/10/06, 2:30,25.4,38,24.1,23
 2003/10/06, 2:45,25.4,38,24.1,23
 2003/10/06, 3:00,25.3,38,24.1,23
 2003/10/06, 3:15,25.3,38,24.1,23
 2003/10/06, 3:30,25.3,38,24.1,23.1
 2003/10/06, 3:45,25.3,38,24.1,23.1
 2003/10/06, 4:00,25.3,38,24.1,23.1
 2003/10/06, 4:15,25.3,38,24.1,23.2
 2003/10/06, 4:30,25.3,38,24.1,23.2
 2003/10/06, 4:45,25.3,38,24,23.2
 2003/10/06, 5:00,25.3,38,24,23.2
 2003/10/06, 5:15,25.2,38,24.1,23.3
 2003/10/06, 5:30,25.2,38,24.1,23.3
 2003/10/06, 5:45,25.2,38,24.1,23.4
 2003/10/06, 6:00,25.2,38,24.1,22.7
 2003/10/06, 6:15,25.2,38,24.1,22.7
 2003/10/06, 6:30,25.1,38,24.1,22.8
 2003/10/06, 6:45,25.2,38,24.3,22.8
 2003/10/06, 7:00,24.9,37,23.4,22.8
 2003/10/06, 7:15,24.9,37,23.4,22.8
 2003/10/06, 7:30,24.8,37,23.1,22.9
 2003/10/06, 7:45,23.6,34,23.4,22.5
 2003/10/06, 8:00,22.5,37,23.5,22.5
 2003/10/06, 8:15,22.5,39,23.3,22.5
 2003/10/06, 8:30,22.5,41,23.3,22.6
 2003/10/06, 8:45,22.5,40,23.3,22.6
 2003/10/06, 9:00,22.3,43,23.3,22.6
 2003/10/06, 9:15,22,45,23.2,22.7
 2003/10/06, 9:30,21.7,46,23.1,22.7
 2003/10/06, 9:45,21.7,46,23,22.7
 2003/10/06,10:00,21.7,45,23,22.7
 2003/10/06,10:15,21.5,46,22.9,22.8
 2003/10/06,10:30,21.6,47,22.9,22.8
 2003/10/06,10:45,21.7,47,22.9,22.8
 2003/10/06,11:00,22,45,22.9,22.8
 2003/10/06,11:15,22.1,45,22.9,22.8
 2003/10/06,11:30,22.2,43,22.9,22.9
 2003/10/06,11:45,22.1,42,22.9,22.9
 2003/10/06,12:00,22.1,44,22.8,22.9
 2003/10/06,12:15,22.1,43,22.8,22.9
 2003/10/06,12:30,22.1,43,22.8,22.9
 2003/10/06,12:45,22.2,43,22.8,23
 2003/10/06,13:00,22.1,42,22.8,23
 2003/10/06,13:15,22,42,22.8,23
 2003/10/06,13:30,22.3,42,22.8,23
 2003/10/06,13:45,22,40,22.8,23
 2003/10/06,14:00,22.3,40,22.7,23.1
 2003/10/06,14:15,22.6,39,22.7,23.1
 2003/10/06,14:30,22.6,39,22.7,23.1
 2003/10/06,14:45,22.7,39,22.7,23.1
 2003/10/06,15:00,22.8,39,22.5,23.1
 2003/10/06,15:15,22.5,37,22.7,23.2
 2003/10/06,15:30,22.3,38,22.7,22.8
 2003/10/06,15:45,22.4,39,22.8,22.8
 2003/10/06,16:00,22.8,39,23.2,22.8
 2003/10/06,16:15,23.1,39,23.3,22.7
 2003/10/06,16:30,23.2,40,23.4,22.7
 2003/10/06,16:45,23.3,40,23.4,22.7
 2003/10/06,17:00,23.4,40,23.4,22.7
 2003/10/06,17:15,23.6,41,23.5,22.7
 2003/10/06,17:30,23.6,40,23.5,22.8
 2003/10/06,17:45,23.8,40,23.5,22.5
 2003/10/06,18:00,23.8,40,23.5,22.5
 2003/10/06,18:15,23.9,40,23.5,22.5
 2003/10/06,18:30,24,40,23.5,22.4
 2003/10/06,18:45,24,40,23.5,22.4
 2003/10/06,19:00,24,40,23.6,22.5
 2003/10/06,19:15,24,40,23.5,22.5
 2003/10/06,19:30,24,40,23.5,22.5
 2003/10/06,19:45,24.1,40,23.4,22.5
 2003/10/06,20:00,24,41,23.3,22.6
 2003/10/06,20:15,24.1,41,23.4,22.4
 2003/10/06,20:30,24.2,43,23.6,22.4
 2003/10/06,20:45,24.4,44,23.3,22.4
 2003/10/06,21:00,24.5,43,23.3,22.4
 2003/10/06,21:15,24.4,43,23.3,22.4
 2003/10/06,21:30,24.4,43,23.2,22.5
 2003/10/06,21:45,24.3,43,23.2,22.5
 2003/10/06,22:00,24.3,43,23.2,22.5
 2003/10/06,22:15,24.3,43,23.2,22.5
 2003/10/06,22:30,24.3,42,23.3,22.6
 2003/10/06,22:45,24.3,42,23.5,22.6
 2003/10/06,23:00,24.4,43,23.5,22.6
 2003/10/06,23:15,24.4,44,23.4,22.2
 2003/10/06,23:30,24.5,44,23.4,22
 2003/10/06,23:45,24.5,44,23.4,22
 2003/10/07, 0:00,24.5,44,23.4,22
 2003/10/07, 0:15,24.5,44,23.4,22.1
 2003/10/07, 0:30,24.5,44,23.4,22.1
 2003/10/07, 0:45,24.5,44,23.5,22.1
 2003/10/07, 1:00,24.5,44,23.4,22.2
 2003/10/07, 1:15,24.5,43,23.4,22.2
 2003/10/07, 1:30,24.5,43,23.5,22.2
 2003/10/07, 1:45,24.5,43,23.5,22.2
 2003/10/07, 2:00,24.4,43,23.5,22.3
 2003/10/07, 2:15,24.4,43,23.5,22.3
 2003/10/07, 2:30,24.4,43,23.5,22.3
 2003/10/07, 2:45,24.4,43,23.5,22.4
 2003/10/07, 3:00,24.4,43,23.5,22.4
 2003/10/07, 3:15,24.3,43,23.4,22.5
 2003/10/07, 3:30,24.3,43,23.5,22.5
 2003/10/07, 3:45,24.3,43,23.5,22.5
 2003/10/07, 4:00,24.3,43,23.5,22.6
 2003/10/07, 4:15,24.3,43,23.5,22.6
 2003/10/07, 4:30,24.3,43,23.5,22.6
 2003/10/07, 4:45,24.3,43,23.5,22.6
 2003/10/07, 5:00,24.3,43,23.5,22.7
 2003/10/07, 5:15,24.2,43,23.4,22.7
 2003/10/07, 5:30,24.3,43,23.5,22.7
 2003/10/07, 5:45,24.2,43,23.5,22.8
 2003/10/07, 6:00,24.3,43,23.5,22.8
 2003/10/07, 6:15,24.3,43,23.5,22.8
 2003/10/07, 6:30,24.3,43,23.5,22.9
 2003/10/07, 6:45,24.3,43,23.7,21.9
 2003/10/07, 7:00,24.3,41,23.6,22.1
 2003/10/07, 7:15,23.7,42,23.4,22.1
 2003/10/07, 7:30,23.5,40,23.2,22.1
 2003/10/07, 7:45,23.4,40,23.2,22.1
 2003/10/07, 8:00,23.2,40,23.2,22.1
 2003/10/07, 8:15,23.2,40,23.2,22.2
 2003/10/07, 8:30,22.9,40,23.1,22.2
 2003/10/07, 8:45,23.1,40,23.1,22.2
 2003/10/07, 9:00,22.9,41,23.1,22.3
 2003/10/07, 9:15,22.8,41,23,22.3
 2003/10/07, 9:30,23,41,23.1,22.3
 2003/10/07, 9:45,23,41,23.1,22.3
 2003/10/07,10:00,23.1,41,23.2,22.4
 2003/10/07,10:15,23.2,41,23.3,22.4
 2003/10/07,10:30,23.2,41,23.3,22.5
 2003/10/07,10:45,23.3,41,23.3,22.5
 2003/10/07,11:00,23.3,41,23.3,22.5
 2003/10/07,11:15,23.3,41,23.3,22.5
 2003/10/07,11:30,23.3,40,23.3,22.6
 2003/10/07,11:45,23.4,39,23.3,22.6
 2003/10/07,12:00,23.4,38,23.3,22.6
 2003/10/07,12:15,23.4,37,23.3,22.7
 2003/10/07,12:30,23.4,36,23.3,22.7
 2003/10/07,12:45,23.4,34,23.2,22.7
 2003/10/07,13:00,23.4,34,23.3,22.7
 2003/10/07,13:15,23.4,34,23.3,22.8
 2003/10/07,13:30,23.4,34,23.3,22.8
 2003/10/07,13:45,23.5,34,23.3,22.8
 2003/10/07,14:00,23.5,34,23.3,22.8
 2003/10/07,14:15,23.6,34,23.3,22.9
 2003/10/07,14:30,23.6,33,23.3,22.9
 2003/10/07,14:45,23.6,33,23.3,22.9
 2003/10/07,15:00,23.6,33,23.3,23
 2003/10/07,15:15,23.6,32,23.3,23
 2003/10/07,15:30,23.6,32,23.3,23
 2003/10/07,15:45,23.5,32,23.3,23
 2003/10/07,16:00,23.5,31,23.3,23
 2003/10/07,16:15,23.4,32,23.3,23.1
 2003/10/07,16:30,23.4,32,23.3,23.1
 2003/10/07,16:45,23.5,32,23.3,23.1
 2003/10/07,17:00,23.4,33,23.3,23.1
 2003/10/07,17:15,23.5,33,23.3,23.2
 2003/10/07,17:30,23.5,34,23.2,23.2
 2003/10/07,17:45,23.4,34,23.2,23.2
 2003/10/07,18:00,23.4,33,23.3,23.2
 2003/10/07,18:15,23.4,34,23.3,23.2
 2003/10/07,18:30,23.4,34,23.3,23.3
 2003/10/07,18:45,23.4,33,23.2,23.3
 2003/10/07,19:00,23.2,34,23.2,23.3
 2003/10/07,19:15,23.3,35,23.2,23.3
 2003/10/07,19:30,23.2,34,23.2,23.3
 2003/10/07,19:45,23.2,34,23.2,23.4
 2003/10/07,20:00,23.2,34,23.2,23.4
 2003/10/07,20:15,23.2,35,23.1,23.4